Randolph AFB, TX

9:06 PM CST on November 23, 2017 (GMT -0600)
Randolph Air Force Base

Weather History for KRND - December, 2013

Change the Weather History Date:

Sunday, December 29, 2013

  Actual Average Record
Temperature  
Mean Temperature 50 °F -  
Max Temperature 62 °F 60 °F 82 °F (1996)
Min Temperature 37 °F 40 °F 30 °F (1997)
Degree Days  
Heating Degree Days 16    
Moisture  
Dew Point 40 °F    
Average Humidity 84    
Maximum Humidity 93    
Minimum Humidity 58    
Precipitation  
Precipitation 0.00 in - - ()
Sea Level Pressure  
Sea Level Pressure 30.05 in    
Wind  
Wind Speed 4 mph (WSW)    
Max Wind Speed 22 mph    
Max Gust Speed 30 mph    
Visibility 5 miles    
Events Fog    
Averages and records for this station are not official NWS values.
T = Trace of Precipitation, MM = Missing Value Source: NWS Daily Summary

Daily Weather History Graph

Daily Weather History Graph

Search for Another Location

Airport or City:

Trip Planner

Search our weather history database for the weather conditions in past years. The results will help you decide how hot, cold, wet, or windy it might be!

Date:

Astronomy

Dec. 29, 2013 Rise Set
Actual Time 7:27 AM CST 5:43 PM CST
Civil Twilight 7:00 AM CST 6:09 PM CST
Nautical Twilight 6:31 AM CST 6:39 PM CST
Astronomical Twilight 6:02 AM CST 7:08 PM CST
Moon 4:18 AM CST (12/29) 3:17 PM CST (12/29)
Length of Visible Light 11h 08m
Length of Day
10h 16m
Waning Crescent, 11% of the Moon is Illuminated
Dec 29
Waning Crescent
Jan 1
New
Jan 7
First Quarter
Jan 15
Full
Jan 23
Last Quarter

Hourly Weather History & Observations

Time (CST) Temp. Windchill Dew Point Humidity Pressure Visibility Wind Dir Wind Speed Gust Speed Precip Events Conditions
12:08 AM 44.6 °F 43.1 °F 41.0 °F 87% 30.05 in 10.0 mi SW 3.5 mph - N/A   Clear
12:58 AM 47.7 °F - 42.6 °F 83% 30.03 in 10.0 mi SW 1.2 mph - N/A   Clear
1:03 AM 48.2 °F - 42.8 °F 82% 30.03 in 9.0 mi Calm Calm - N/A   Clear
1:28 AM 44.6 °F - 41.0 °F 87% 30.02 in 10.0 mi WSW 2.3 mph - N/A   Clear
1:48 AM 42.8 °F - 41.0 °F 93% 30.01 in 9.0 mi SW 1.2 mph - N/A   Clear
1:58 AM 43.5 °F - 41.2 °F 91% 30.00 in 8.0 mi Calm Calm - N/A   Clear
2:03 AM 44.6 °F - 41.0 °F 87% 30.00 in 7.0 mi Calm Calm - N/A   Clear
2:08 AM 42.8 °F - 39.2 °F 87% 30.00 in 4.0 mi Calm Calm - N/A   Clear
2:13 AM 41.0 °F - 39.2 °F 93% 30.00 in 2.0 mi Calm Calm - N/A   Clear
2:18 AM 41.0 °F - 39.2 °F 93% 30.00 in 1.5 mi Calm Calm - N/A   Clear
2:23 AM 41.0 °F - 39.2 °F 93% 29.99 in 1.2 mi Calm Calm - N/A   Clear
2:28 AM 41.0 °F - 39.2 °F 93% 29.99 in 0.8 mi Calm Calm - N/A   Clear
2:33 AM 41.0 °F - 39.2 °F 93% 29.99 in 0.5 mi Calm Calm - N/A Fog Fog
2:38 AM 42.8 °F - 41.0 °F 93% 29.99 in 0.8 mi Calm Calm - N/A   Clear
2:43 AM 42.8 °F - 41.0 °F 93% 29.99 in 0.8 mi Calm Calm - N/A   Clear
2:48 AM 42.8 °F - 41.0 °F 93% 29.99 in 0.2 mi Calm Calm - N/A Fog Fog
2:53 AM 42.8 °F - 41.0 °F 93% 29.99 in 0.5 mi Calm Calm - N/A Fog Fog
2:58 AM 42.8 °F - 41.0 °F 93% 29.99 in 1.0 mi Calm Calm - N/A   Clear
3:03 AM 42.8 °F - 41.0 °F 93% 29.99 in 5.0 mi Calm Calm - N/A   Clear
3:08 AM 42.8 °F - 41.0 °F 93% 29.99 in 3.0 mi Calm Calm - N/A   Clear
3:13 AM 42.8 °F - 41.0 °F 93% 29.99 in 2.5 mi WSW 1.2 mph - N/A   Clear
3:18 AM 42.8 °F - 41.0 °F 93% 29.99 in 4.0 mi SSW 2.3 mph - N/A   Clear
3:23 AM 42.8 °F 41.1 °F 41.0 °F 93% 30.00 in 0.8 mi SSW 3.5 mph - N/A   Clear
3:28 AM 42.8 °F - 41.0 °F 93% 30.00 in 0.5 mi SW 2.3 mph - N/A Fog Fog
3:33 AM 42.8 °F - 41.0 °F 93% 30.00 in 0.8 mi SW 2.3 mph - N/A   Clear
3:38 AM 42.8 °F - 41.0 °F 93% 30.00 in 0.5 mi SW 2.3 mph - N/A Fog Fog
3:43 AM 42.8 °F - 39.2 °F 87% 30.00 in 0.5 mi SW 2.3 mph - N/A Fog Fog
3:48 AM 41.0 °F - 39.2 °F 93% 30.00 in 1.5 mi SW 2.3 mph - N/A   Clear
3:53 AM 41.0 °F - 39.2 °F 93% 30.00 in 2.5 mi SW 2.3 mph - N/A   Clear
3:58 AM 41.0 °F - 39.2 °F 93% 30.01 in 2.5 mi SSW 2.3 mph - N/A   Clear
4:13 AM 41.0 °F - 39.2 °F 93% 30.00 in 1.8 mi SW 2.3 mph - N/A   Clear
4:18 AM 42.8 °F - 41.0 °F 93% 30.00 in 1.2 mi SSW 2.3 mph - N/A   Clear
4:23 AM 42.8 °F - 41.0 °F 93% 29.99 in 1.0 mi South 2.3 mph - N/A   Clear
4:28 AM 41.0 °F - 39.2 °F 93% 29.99 in 0.5 mi SSE 2.3 mph - N/A Fog Fog
4:33 AM 41.0 °F - 37.4 °F 87% 29.99 in 0.2 mi South 1.2 mph - N/A Fog Fog
4:43 AM 39.2 °F - 37.4 °F 93% 29.99 in 0.2 mi South 2.3 mph - N/A Fog Fog
4:58 AM 39.7 °F - 37.8 °F 93% 30.00 in 0.2 mi South 2.3 mph - N/A Fog Fog
5:13 AM 39.2 °F 37.0 °F 37.4 °F 93% 29.99 in 0.8 mi SSW 3.5 mph - N/A   Clear
5:18 AM 39.2 °F 37.0 °F 37.4 °F 93% 29.99 in 0.8 mi SSW 3.5 mph - N/A   Clear
5:23 AM 39.2 °F 37.0 °F 37.4 °F 93% 30.00 in 0.5 mi SSW 3.5 mph - N/A Fog Fog
5:38 AM 39.2 °F - 37.4 °F 93% 30.00 in 0.2 mi SW 1.2 mph - N/A Fog Fog
5:53 AM 39.2 °F 37.0 °F 37.4 °F 93% 30.00 in 0.5 mi WSW 3.5 mph - N/A Fog Fog
5:58 AM 38.7 °F 36.3 °F 36.9 °F 93% 30.02 in 1.0 mi WSW 3.5 mph - N/A   Clear
6:03 AM 39.2 °F - 37.4 °F 93% 30.01 in 2.0 mi WSW 2.3 mph - N/A   Clear
6:08 AM 39.2 °F - 37.4 °F 93% 30.01 in 0.8 mi Calm Calm - N/A   Clear
6:13 AM 39.2 °F - 37.4 °F 93% 30.01 in 0.2 mi SSW 2.3 mph - N/A Fog Fog
6:48 AM 39.2 °F - 37.4 °F 93% 30.02 in 0.5 mi SW 2.3 mph - N/A Fog Fog
6:53 AM 39.2 °F - 37.4 °F 93% 30.02 in 0.8 mi WSW 2.3 mph - N/A   Clear
6:58 AM 39.2 °F - 37.4 °F 93% 30.03 in 1.5 mi West 2.3 mph - N/A   Clear
7:03 AM 39.2 °F - 37.4 °F 93% 30.02 in 2.0 mi West 2.3 mph - N/A   Clear
7:08 AM 37.4 °F - 35.6 °F 93% 30.02 in 0.8 mi NW 1.2 mph - N/A   Clear
7:13 AM 37.4 °F - 35.6 °F 93% 30.03 in 0.2 mi Calm Calm - N/A Fog Fog
7:18 AM 39.2 °F - 37.4 °F 93% 30.03 in 0.5 mi WNW 1.2 mph - N/A Fog Fog
7:23 AM 39.2 °F - 37.4 °F 93% 30.03 in 1.2 mi WSW 2.3 mph - N/A   Clear
7:28 AM 39.2 °F - 37.4 °F 93% 30.03 in 2.5 mi Calm Calm - N/A   Clear
7:43 AM 37.4 °F - 35.6 °F 93% 30.03 in 1.0 mi NNW 1.2 mph - N/A   Clear
7:53 AM 39.2 °F - 37.4 °F 93% 30.04 in 2.5 mi Calm Calm - N/A   Clear
7:58 AM 39.2 °F - 37.4 °F 93% 30.05 in 3.0 mi Calm Calm - N/A   Clear
8:03 AM 39.2 °F - 35.6 °F 87% 30.04 in 1.5 mi Calm Calm - N/A   Clear
8:08 AM 39.2 °F - 37.4 °F 93% 30.04 in 1.0 mi Calm Calm - N/A   Clear
8:13 AM 39.2 °F - 37.4 °F 93% 30.04 in 1.2 mi Calm Calm - N/A   Clear
8:28 AM 41.0 °F - 39.2 °F 93% 30.05 in 1.8 mi Calm Calm - N/A   Clear
8:33 AM 41.0 °F - 39.2 °F 93% 30.05 in 2.0 mi Calm Calm - N/A   Clear
8:38 AM 42.8 °F - 41.0 °F 93% 30.05 in 3.0 mi Calm Calm - N/A   Clear
8:58 AM 45.3 °F - 43.3 °F 93% 30.06 in 4.0 mi Calm Calm - N/A   Clear
9:18 AM 50.0 °F - 46.4 °F 87% 30.07 in 5.0 mi SSW 2.3 mph - N/A   Clear
9:58 AM 53.6 °F - 45.9 °F 75% 30.08 in 10.0 mi SW 5.8 mph - N/A   Clear
10:43 AM 57.2 °F - 44.6 °F 63% 30.08 in 10.0 mi SW 6.9 mph - N/A   Mostly Cloudy
10:58 AM 58.3 °F - 45.7 °F 63% 30.07 in 10.0 mi SSW 8.1 mph - N/A   Overcast
11:58 AM 59.7 °F - 45.7 °F 60% 30.07 in 10.0 mi SSW 8.1 mph - N/A   Overcast
12:03 PM 59.0 °F - 46.4 °F 63% 30.07 in 10.0 mi South 12.7 mph - N/A   Overcast
12:13 PM 59.0 °F - 46.4 °F 63% 30.07 in 10.0 mi South 12.7 mph - N/A   Scattered Clouds
12:33 PM 60.8 °F - 46.4 °F 59% 30.07 in 10.0 mi SW 12.7 mph - N/A   Mostly Cloudy
12:58 PM 60.8 °F - 47.1 °F 61% 30.04 in 10.0 mi South 8.1 mph - N/A   Mostly Cloudy
1:03 PM 60.8 °F - 46.4 °F 59% 30.04 in 10.0 mi WSW 9.2 mph - N/A   Scattered Clouds
1:58 PM 61.9 °F - 47.5 °F 59% 30.02 in 10.0 mi West 3.5 mph - N/A   Clear
2:58 PM 62.1 °F - 47.1 °F 58% 30.03 in 10.0 mi WNW 4.6 mph - N/A   Partly Cloudy
3:58 PM 61.9 °F - 47.7 °F 60% 30.03 in 10.0 mi WNW 2.3 mph - N/A   Mostly Cloudy
4:28 PM 60.8 °F - 48.2 °F 63% 30.04 in 10.0 mi Calm Calm - N/A   Scattered Clouds
4:38 PM 60.8 °F - 48.2 °F 63% 30.05 in 10.0 mi North 5.8 mph - N/A   Mostly Cloudy
4:58 PM 59.9 °F - 47.8 °F 64% 30.05 in 10.0 mi NNE 9.2 mph - N/A   Overcast
5:48 PM 59.0 °F - 48.2 °F 67% 30.08 in 10.0 mi NNE 8.1 mph - N/A   Overcast
5:58 PM 58.3 °F - 47.3 °F 67% 30.09 in 10.0 mi NNE 10.4 mph - N/A   Overcast
6:08 PM 57.2 °F - 46.4 °F 67% 30.10 in 10.0 mi NNE 10.4 mph - N/A   Overcast
6:13 PM 57.2 °F - 46.4 °F 67% 30.10 in 10.0 mi NNE 13.8 mph - N/A   Overcast
6:58 PM 56.1 °F - 46.2 °F 69% 30.11 in 10.0 mi NNE 9.2 mph - N/A   Overcast
7:03 PM 55.4 °F - 46.4 °F 72% 30.10 in 10.0 mi NNE 8.1 mph - N/A   Overcast
7:23 PM 51.8 °F - 42.8 °F 71% 30.13 in 10.0 mi North 17.3 mph 23.0 mph N/A   Overcast
7:28 PM 50.0 °F - 42.8 °F 76% 30.14 in 10.0 mi North 16.1 mph - N/A   Overcast
7:33 PM 50.0 °F - 41.0 °F 71% 30.15 in 10.0 mi North 21.9 mph 29.9 mph N/A   Overcast
7:38 PM 50.0 °F - 41.0 °F 71% 30.15 in 10.0 mi North 19.6 mph 29.9 mph N/A   Overcast
7:48 PM 48.2 °F - 41.0 °F 76% 30.16 in 10.0 mi North 18.4 mph 25.3 mph N/A   Overcast
7:58 PM 48.0 °F - 40.8 °F 76% 30.18 in 10.0 mi North 18.4 mph - N/A   Overcast
8:03 PM 46.4 °F 38.5 °F 39.2 °F 76% 30.17 in 10.0 mi North 21.9 mph - N/A   Overcast
8:08 PM 46.4 °F 39.2 °F 39.2 °F 76% 30.17 in 10.0 mi North 18.4 mph 25.3 mph N/A   Mostly Cloudy
8:28 PM 44.6 °F 36.6 °F 37.4 °F 76% 30.18 in 10.0 mi North 19.6 mph 26.5 mph N/A   Mostly Cloudy
8:43 PM 44.6 °F 37.2 °F 37.4 °F 76% 30.18 in 10.0 mi North 17.3 mph 26.5 mph N/A   Overcast
8:58 PM 43.3 °F 34.5 °F 36.1 °F 76% 30.20 in 10.0 mi NNW 21.9 mph 26.5 mph N/A   Overcast
9:03 PM 42.8 °F 34.8 °F 35.6 °F 76% 30.20 in 10.0 mi North 17.3 mph 25.3 mph N/A   Overcast
9:58 PM 40.3 °F 31.3 °F 33.1 °F 75% 30.23 in 10.0 mi North 18.4 mph 25.3 mph N/A   Overcast
10:43 PM 39.2 °F 30.2 °F 32.0 °F 75% 30.25 in 10.0 mi North 17.3 mph 27.6 mph N/A   Overcast
10:58 PM 38.1 °F 28.8 °F 30.6 °F 74% 30.26 in 10.0 mi North 17.3 mph - N/A   Overcast
11:58 PM 37.0 °F 27.4 °F 29.7 °F 75% 30.25 in 10.0 mi North 17.3 mph 25.3 mph N/A   Overcast